User: anonymous   Login
Location: Cincinnati Observatory Center
(39.1389°N, 84.4225°W)
Time: 03:49:14
(UTC-04:00)
Language:

COSMOS 2428 - Orbit

View from above orbital plane
View from above orbital plane
View from above satellite
View from above satellite

Ground track
Ground track

The orbit data is extracted from the following two-line orbital elements,

1 31792U 07029A   15147.22162421  .00000137  00000-0  10000-3 0  9993
2 31792 070.9805 189.0684 0008961 314.5218 155.3737 14.12544958407899
Epoch (UTC): 27 May 2015 05:19:08
Eccentricity: 0.0008961
inclination: 70.9805°
perigee height: 844 km
apogee height: 857 km
right ascension of ascending node: 189.0684°
argument of perigee: 314.5218°
revolutions per day: 14.12544958
mean anomaly at epoch: 155.3737°
orbit number at epoch: 40789

The dashed part of the orbit path shows where the satellite is in the earth's shadow,  

DLR